Weather History for Moses Lake, WA

Change the Weather History Date:

Thursday, August 22, 2013

  Actual Average Record
Temperature  
Mean Temperature 75 °F 70 °F  
Max Temperature 93 °F 87 °F 94 °F (2011)
Min Temperature 56 °F 54 °F 40 °F (1985)
Degree Days  
Heating Degree Days 0 0  
Month to date heating degree days 0 0  
Since 1 June heating degree days 49 63  
Since 1 July heating degree days 0 8  
Cooling Degree Days 10 6  
Month to date cooling degree days 219 172  
Year to date cooling degree days 752 526  
Since 1 June cooling degree days 702 501  
Growing Degree Days 24 (Base 50)    
Moisture  
Dew Point 40 °F    
Average Humidity 32    
Maximum Humidity 49    
Minimum Humidity 14    
Precipitation  
Precipitation 0.00 in 0.01 in 0.12 in (2004)
Month to date precipitation 0.43 0.18  
Year to date precipitation 4.18 5.36  
Sea Level Pressure  
Sea Level Pressure 29.85 in    
Wind  
Wind Speed 6 mph (NW)    
Max Wind Speed 13 mph    
Max Gust Speed 15 mph    
Visibility 10 miles    
Events Thunderstorm    
T = Trace of Precipitation, MM = Missing Value Source: NWS Daily Summary

Daily Weather History Graph

Daily Weather History Graph

Search for Another Location

Airport:

Trip Planner

Search our weather history database for the weather conditions in past years. The results will help you decide how hot, cold, wet, or windy it might be!

Date:

Astronomy

Aug. 22, 2013 Rise Set
Actual Time 6:03 AM PDT 7:55 PM PDT
Civil Twilight 5:30 AM PDT 8:28 PM PDT
Nautical Twilight 4:50 AM PDT 9:07 PM PDT
Astronomical Twilight 4:06 AM PDT 9:51 PM PDT
Moon 8:28 PM PDT (8/22) 8:09 AM PDT (8/22)
Length of Visible Light 14h 57m
Length of Day
13h 51m
Waning Gibbous, 96% of the Moon is Illuminated
Aug 22
Waning Gibbous
Aug 28
Last Quarter
Sep 5
New
Sep 12
First Quarter
Sep 19
Full

Hourly Weather History & Observations

Time (PDT) Temp. Dew Point Humidity Pressure Visibility Wind Dir Wind Speed Gust Speed Precip Events Conditions
12:52 AM 62.1 °F 37.0 °F 39% 29.93 in 10.0 mi North 5.8 mph - N/A   Clear
1:52 AM 61.0 °F 36.0 °F 39% 29.93 in 10.0 mi North 5.8 mph - N/A   Clear
2:52 AM 57.9 °F 36.0 °F 44% 29.92 in 10.0 mi North 6.9 mph - N/A   Partly Cloudy
3:52 AM 57.9 °F 37.0 °F 46% 29.93 in 10.0 mi NNE 3.5 mph - N/A   Clear
4:52 AM 57.0 °F 37.0 °F 47% 29.92 in 10.0 mi North 6.9 mph - N/A   Clear
5:52 AM 59.0 °F 37.0 °F 44% 29.92 in 10.0 mi NE 3.5 mph - N/A   Clear
6:52 AM 61.0 °F 37.0 °F 41% 29.93 in 10.0 mi NNE 5.8 mph - N/A   Clear
7:52 AM 66.0 °F 37.9 °F 36% 29.93 in 10.0 mi North 5.8 mph - N/A   Clear
8:52 AM 72.0 °F 41.0 °F 33% 29.92 in 10.0 mi North 8.1 mph - N/A   Clear
9:52 AM 79.0 °F 39.9 °F 25% 29.91 in 10.0 mi North 5.8 mph - N/A   Clear
10:52 AM 82.0 °F 39.0 °F 22% 29.91 in 10.0 mi Variable 3.5 mph - N/A   Clear
11:52 AM 86.0 °F 39.0 °F 19% 29.89 in 10.0 mi NW 3.5 mph - N/A   Clear
12:52 PM 89.1 °F 37.0 °F 16% 29.86 in 10.0 mi Variable 4.6 mph - N/A   Clear
1:52 PM 91.0 °F 36.0 °F 14% 29.84 in 10.0 mi Calm Calm - N/A   Clear
2:52 PM 91.0 °F 36.0 °F 14% 29.82 in 10.0 mi WSW 8.1 mph - N/A   Clear
3:52 PM 90.0 °F 39.9 °F 17% 29.81 in 10.0 mi SW 8.1 mph - N/A   Clear
4:52 PM 89.1 °F 37.9 °F 16% 29.78 in 10.0 mi WSW 6.9 mph - N/A   Clear
5:52 PM 88.0 °F 37.9 °F 17% 29.78 in 10.0 mi WSW 9.2 mph - N/A   Clear
6:14 PM 87.8 °F 39.2 °F 18% 29.79 in 10.0 mi WSW 6.9 mph - N/A Thunderstorm Clear
6:36 PM 87.8 °F 39.2 °F 18% 29.78 in 10.0 mi West 11.5 mph - N/A   Clear
6:52 PM 86.0 °F 42.1 °F 21% 29.76 in 10.0 mi West 11.5 mph - N/A   Clear
7:52 PM 82.9 °F 43.0 °F 24% 29.76 in 10.0 mi SW 6.9 mph - N/A   Clear
8:52 PM 78.1 °F 42.1 °F 28% 29.77 in 10.0 mi SSE 3.5 mph - N/A   Clear
9:52 PM 75.9 °F 46.9 °F 36% 29.77 in 10.0 mi SSE 3.5 mph - N/A   Clear
10:52 PM 75.0 °F 48.0 °F 38% 29.76 in 10.0 mi SSE 6.9 mph - N/A   Scattered Clouds
11:52 PM 71.1 °F 52.0 °F 51% 29.75 in 10.0 mi SE 12.7 mph - N/A   Clear